TimeMDT,TemperatureF,Dew PointF,Humidity,Sea Level PressureIn,VisibilityMPH,Wind Direction,Wind SpeedMPH,Gust SpeedMPH,PrecipitationIn,Events,Conditions,WindDirDegrees,DateUTC
12:53 AM,69.1,46.9,45,29.75,10.0,WSW,20.7,27.6,0.00,Rain,Light Rain,250,2013-09-19 06:53:00
1:53 AM,66.9,46.9,49,29.75,10.0,WNW,16.1,-,0.00,,Clear,300,2013-09-19 07:53:00
2:53 AM,68.0,45.0,43,29.72,10.0,WNW,16.1,26.5,N/A,,Clear,290,2013-09-19 08:53:00
3:53 AM,66.0,45.0,47,29.72,10.0,West,5.8,-,N/A,,Clear,270,2013-09-19 09:53:00
4:53 AM,62.1,48.9,62,29.74,10.0,Calm,Calm,-,N/A,,Clear,0,2013-09-19 10:53:00
5:53 AM,63.0,45.0,52,29.76,10.0,West,10.4,-,N/A,,Clear,280,2013-09-19 11:53:00
6:53 AM,60.1,46.0,60,29.82,10.0,North,6.9,-,N/A,,Clear,360,2013-09-19 12:53:00
7:53 AM,63.0,37.0,38,29.86,10.0,North,19.6,24.2,N/A,,Clear,360,2013-09-19 13:53:00
8:53 AM,66.9,33.1,28,29.88,10.0,North,23.0,26.5,N/A,,Clear,360,2013-09-19 14:53:00
9:53 AM,69.1,41.0,36,29.91,10.0,NNE,19.6,29.9,N/A,,Clear,30,2013-09-19 15:53:00
10:53 AM,70.0,44.1,39,29.91,10.0,NNE,16.1,24.2,N/A,,Clear,30,2013-09-19 16:53:00
11:53 AM,72.0,44.1,37,29.91,10.0,NE,13.8,18.4,N/A,,Clear,40,2013-09-19 17:53:00
12:53 PM,73.0,44.1,35,29.90,10.0,NE,11.5,18.4,N/A,,Partly Cloudy,50,2013-09-19 18:53:00
1:53 PM,73.0,46.0,38,29.89,10.0,East,11.5,23.0,N/A,,Clear,100,2013-09-19 19:53:00
2:53 PM,73.9,46.9,38,29.88,10.0,East,11.5,19.6,N/A,,Clear,100,2013-09-19 20:53:00
3:53 PM,73.0,46.9,39,29.88,10.0,East,11.5,-,N/A,,Partly Cloudy,90,2013-09-19 21:53:00
4:53 PM,73.0,46.9,39,29.89,10.0,East,12.7,-,N/A,,Overcast,80,2013-09-19 22:53:00
5:53 PM,72.0,46.9,41,29.90,10.0,East,15.0,-,N/A,,Clear,80,2013-09-19 23:53:00
6:53 PM,69.1,46.9,45,29.94,10.0,East,17.3,-,N/A,,Overcast,80,2013-09-20 00:53:00
7:53 PM,68.0,46.0,45,29.96,10.0,East,13.8,-,N/A,,Overcast,80,2013-09-20 01:53:00
8:53 PM,66.0,46.9,50,29.99,10.0,East,15.0,-,N/A,,Overcast,80,2013-09-20 02:53:00
9:53 PM,63.0,46.9,56,30.04,10.0,ENE,12.7,-,N/A,,Overcast,70,2013-09-20 03:53:00
10:53 PM,62.1,46.9,58,30.06,10.0,East,12.7,-,N/A,,Overcast,90,2013-09-20 04:53:00
11:53 PM,61.0,48.0,62,30.07,10.0,East,13.8,-,N/A,,Overcast,100,2013-09-20 05:53:00